Oshkosh, WI

12:42 PM CDT on March 24, 2017 (GMT -0500)
Wittman Regional

Weather History for KOSH - September, 2013

Change the Weather History Date:

Monday, September 2, 2013

  Actual Average Record
Temperature  
Mean Temperature 60 °F -  
Max Temperature 69 °F 77 °F 96 °F (1953)
Min Temperature 55 °F 56 °F 43 °F (1967)
Degree Days  
Heating Degree Days 4    
Growing Degree Days 10 (Base 50)    
Moisture  
Dew Point 54 °F    
Average Humidity 72    
Maximum Humidity 84    
Minimum Humidity 59    
Precipitation  
Precipitation 0.00 in - - ()
Sea Level Pressure  
Sea Level Pressure 29.93 in    
Wind  
Wind Speed 9 mph (NNW)    
Max Wind Speed 15 mph    
Max Gust Speed -    
Visibility 10 miles    
Events      
Averages and records for this station are not official NWS values.
T = Trace of Precipitation, MM = Missing Value Source: NWS Daily Summary

Daily Weather History Graph

Daily Weather History Graph

Search for Another Location

Airport or City:

Trip Planner

Search our weather history database for the weather conditions in past years. The results will help you decide how hot, cold, wet, or windy it might be!

Date:

Astronomy

Sep. 02, 2013 Rise Set
Actual Time 6:18 AM CDT 7:27 PM CDT
Civil Twilight 5:49 AM CDT 7:57 PM CDT
Nautical Twilight 5:13 AM CDT 8:32 PM CDT
Astronomical Twilight 4:36 AM CDT 9:10 PM CDT
Moon 3:32 AM CDT (9/2) 5:43 PM CDT (9/2)
Length of Visible Light 14h 08m
Length of Day
13h 08m
Waning Crescent, 8% of the Moon is Illuminated
Sep 2
Waning Crescent
Sep 5
New
Sep 12
First Quarter
Sep 19
Full
Sep 26
Last Quarter

Hourly Weather History & Observations

Time (CDT) Temp. Dew Point Humidity Pressure Visibility Wind Dir Wind Speed Gust Speed Precip Events Conditions
12:53 AM 64.9 °F 59.0 °F 81% 29.80 in 10.0 mi North 5.8 mph - N/A   Clear
1:53 AM 66.0 °F 59.0 °F 78% 29.81 in 10.0 mi NNW 9.2 mph - N/A   Scattered Clouds
2:53 AM 64.9 °F 59.0 °F 81% 29.86 in 10.0 mi NNW 9.2 mph - N/A   Scattered Clouds
3:53 AM 64.0 °F 57.9 °F 80% 29.84 in 10.0 mi North 10.4 mph - N/A   Overcast
4:51 AM 62.6 °F 57.2 °F 82% 29.88 in 10.0 mi NNW 9.2 mph - N/A   Overcast
4:53 AM 63.0 °F 57.9 °F 84% 29.85 in 10.0 mi NNW 9.2 mph - N/A   Overcast
5:53 AM 63.0 °F 57.0 °F 81% 29.87 in 10.0 mi NNW 10.4 mph - N/A   Overcast
6:27 AM 60.8 °F 55.4 °F 82% 29.91 in 10.0 mi North 11.5 mph - N/A   Scattered Clouds
6:53 AM 61.0 °F 55.0 °F 81% 29.90 in 10.0 mi North 10.4 mph - N/A   Partly Cloudy
7:53 AM 62.1 °F 53.1 °F 72% 29.92 in 10.0 mi North 15.0 mph - N/A   Scattered Clouds
8:53 AM 63.0 °F 53.1 °F 70% 29.93 in 10.0 mi NNW 11.5 mph - N/A   Mostly Cloudy
9:53 AM 64.0 °F 53.1 °F 67% 29.95 in 10.0 mi North 11.5 mph - N/A   Mostly Cloudy
10:04 AM 62.6 °F 51.8 °F 68% 29.98 in 10.0 mi North 11.5 mph - N/A   Mostly Cloudy
10:53 AM 63.0 °F 53.1 °F 70% 29.96 in 10.0 mi NNW 12.7 mph - N/A   Overcast
11:53 AM 64.0 °F 53.1 °F 67% 29.97 in 10.0 mi NNW 11.5 mph - N/A   Overcast
12:53 PM 64.0 °F 52.0 °F 65% 29.97 in 10.0 mi WNW 8.1 mph - N/A   Overcast
1:53 PM 66.9 °F 52.0 °F 59% 29.96 in 10.0 mi NNW 8.1 mph - N/A   Overcast
2:53 PM 66.9 °F 53.1 °F 61% 29.95 in 10.0 mi NW 8.1 mph - N/A   Overcast
3:53 PM 66.9 °F 52.0 °F 59% 29.96 in 10.0 mi WNW 9.2 mph - N/A   Mostly Cloudy
4:53 PM 66.9 °F 52.0 °F 59% 29.96 in 10.0 mi NW 9.2 mph - N/A   Overcast
5:53 PM 66.0 °F 51.1 °F 59% 29.96 in 10.0 mi NW 9.2 mph - N/A   Overcast
6:53 PM 64.0 °F 50.0 °F 60% 29.97 in 10.0 mi NNW 10.4 mph - N/A   Overcast
7:53 PM 61.0 °F 48.9 °F 64% 29.98 in 10.0 mi NW 4.6 mph - N/A   Scattered Clouds
8:53 PM 57.9 °F 50.0 °F 75% 29.99 in 10.0 mi NNW 5.8 mph - N/A   Clear
9:53 PM 59.0 °F 50.0 °F 72% 30.00 in 10.0 mi NNW 3.5 mph - N/A   Clear
10:53 PM 55.9 °F 50.0 °F 80% 30.01 in 10.0 mi NW 3.5 mph - N/A   Clear
11:53 PM 57.0 °F 48.9 °F 74% 30.01 in 10.0 mi NNW 8.1 mph - N/A   Clear